This is the latest recevied weather packets stored in our database for station/object W1RCY. If no packets are shown the sender has not sent any weather packets the latest 10 day(s).
| Time | Temp. | Humidity | Pressure | Rain* | Wind** | Luminosity | Snow |
|---|---|---|---|---|---|---|---|
| 1777644186 | 9.44° C | 65% | 1007.1 hPa | 0 mm | - | 193 W/m² | - |
| 1777643883 | 9.44° C | 63% | 1007.1 hPa | 0 mm | - | 507 W/m² | - |
| 1777643581 | 9.44° C | 64% | 1007.1 hPa | 0 mm | - | 275 W/m² | - |
| 1777643277 | 9.44° C | 66% | 1007.2 hPa | 0 mm | - | 180 W/m² | - |
| 1777642974 | 8.89° C | 65% | 1007.1 hPa | 0 mm | - | 150 W/m² | - |
| 1777642670 | 9.44° C | 66% | 1006.9 hPa | 0 mm | - | 234 W/m² | - |
| 1777642367 | 8.89° C | 66% | 1006.9 hPa | 0 mm | - | 80 W/m² | - |
| 1777642063 | 8.89° C | 66% | 1006.9 hPa | 0 mm | - | 193 W/m² | - |
| 1777641760 | 8.89° C | 66% | 1007.1 hPa | 0 mm | - | 143 W/m² | - |
| 1777641454 | 8.89° C | 67% | 1006.9 hPa | 0 mm | - | 203 W/m² | - |
| 1777641150 | 8.89° C | 68% | 1006.9 hPa | 0 mm | - | 100 W/m² | - |
| 1777640846 | 8.33° C | 69% | 1006.9 hPa | 0 mm | - | 384 W/m² | - |
| 1777640543 | 8.33° C | 70% | 1006.8 hPa | 0 mm | - | 122 W/m² | - |
| 1777640240 | 8.33° C | 71% | 1006.9 hPa | 0 mm | - | 209 W/m² | - |
| 1777639936 | 8.33° C | 71% | 1006.9 hPa | 0 mm | - | 299 W/m² | - |
| 1777639634 | 8.33° C | 72% | 1006.7 hPa | 0 mm | - | 150 W/m² | - |
| 1777639331 | 8.33° C | 74% | 1006.9 hPa | 0 mm | - | 150 W/m² | - |
| 1777639026 | 8.33° C | 75% | 1007 hPa | 0 mm | - | 104 W/m² | - |
| 1777638723 | 7.78° C | 77% | 1006.7 hPa | 0 mm | - | 172 W/m² | - |
| 1777638419 | 7.78° C | 78% | 1006.8 hPa | 0 mm | - | 276 W/m² | - |
| 1777638116 | 7.78° C | 78% | 1006.8 hPa | 0 mm | - | 197 W/m² | - |
| 1777637812 | 7.78° C | 79% | 1006.7 hPa | 0 mm | - | 296 W/m² | - |
| 1777637508 | 7.22° C | 79% | 1006.9 hPa | 0 mm | - | 193 W/m² | - |
| 1777637206 | 7.22° C | 80% | 1006.8 hPa | 0 mm | - | 203 W/m² | - |
| 1777636903 | 7.22° C | 81% | 1006.7 hPa | 0 mm | - | 175 W/m² | - |
* Rain latest hour (hover to see other rain measurements)
** Current wind speed in m/s (hover to see current wind gust speed)